Location: Mountain Grove
(34.0887°N, 86.6172°W)
Time: 00:25:42
(UTC+00:00)

Cosmos 1242 Rocket - Pass Details

Date: 14 July 2020
Orbit: 448 x 487 km, 81.2° (Epoch: 12 August)

Event Time Altitude Azimuth Distance (km) Brightness Sun altitude
Rises 09:36:05 0° 336° (NNW) 2,460 6.3 -13.0°
Reaches altitude 10° 09:38:26 10° 321° (NW) 1,587 5.2 -12.6°
Maximum altitude 09:41:11 23° 268° (W) 1,023 3.7 -12.2°
Enters shadow 09:42:16 19° 240° (WSW) 1,128 3.8 -12.0°
